Location: Cercedilla
(40.7379°N, 4.0638°W)
Time: 17:41:01
(UTC+00:00)

STARLINK-1306 - Pass Details

Date: 07 June 2020
Orbit: 559 x 561 km, 53.0° (Epoch: 13 July)

Event Time Altitude Azimuth Distance (km) Brightness Sun altitude
Exits shadow 01:09:24 26° 89° (E) 1,118 5.3 -25.2°
Drops below altitude 10° 01:11:39 10° 66° (ENE) 1,842 6.7 -25.1°
Enters shadow 02:10:59 -65° 234° (SW) 12,137 10.4 -21.0°
Maximum altitude 02:47:32 39° 330° (NNW) 852 4.7 -17.3°
